Location: Dover
(39.1580°N, 75.5250°W)
Time: 20:02:42
(UTC-04:00)

SeaSat 1 - Visible Passes

Search period start: 26 June 2017 00:00
Search period end: 06 July 2017 00:00
Orbit: 745 x 748 km, 108.0° (Epoch: 26 June)

Date Brightness Start Highest point End Pass type
(mag) Time Alt. Az. Time Alt. Az. Time Alt. Az.
26 Jun 5.3 01:04:03 10° NE 01:04:52 10° NE 01:05:41 10° NE visible
26 Jun 2.7 02:39:20 33° SE 02:41:31 66° ENE 02:46:25 10° NNW visible
26 Jun 4.1 04:19:06 15° WSW 04:19:23 15° WSW 04:22:09 10° WNW visible
27 Jun 4.3 01:56:04 12° ESE 01:59:47 26° NE 02:03:52 10° N visible
27 Jun 2.9 03:35:50 34° SW 03:37:05 41° WSW 03:41:45 10° NW visible
28 Jun 5.3 01:16:48 10° ENE 01:18:20 11° NE 01:19:53 10° NNE visible
28 Jun 2.6 02:52:33 29° SE 02:55:03 73° ENE 02:59:59 10° NNW visible
28 Jun 4.2 04:32:19 13° WSW 04:32:59 13° WSW 04:35:18 10° WNW visible
29 Jun 4.2 02:09:15 11° ESE 02:13:18 29° NE 02:17:30 10° N visible
29 Jun 3.0 03:49:01 29° SSW 03:50:39 37° WSW 03:55:13 10° NW visible
30 Jun 5.2 01:29:48 10° ENE 01:31:49 12° NE 01:33:50 10° NNE visible
30 Jun 2.5 03:05:42 25° SSE 03:08:35 81° ENE 03:13:32 10° NNW visible
30 Jun 4.2 04:45:28 11° WSW 04:46:35 12° WSW 04:48:19 10° W visible
01 Jul 4.1 02:22:29 10° ESE 02:26:48 31° NE 02:31:07 10° N visible
01 Jul 3.1 04:02:07 24° SSW 04:04:13 33° WSW 04:08:41 10° NW visible
02 Jul 5.2 01:42:55 10° ENE 01:45:18 14° NE 01:47:41 10° NNE visible
02 Jul 2.4 03:18:45 21° SSE 03:22:08 89° ENE 03:27:05 10° NNW visible
02 Jul 4.3 04:59:25 10° WSW 05:00:10 10° WSW 05:00:55 10° W visible
03 Jul 4.0 02:35:53 10° ESE 02:40:18 34° NE 02:44:44 10° N visible
03 Jul 3.2 04:15:07 19° SSW 04:17:47 30° WSW 04:22:07 10° NW visible
04 Jul 5.2 01:56:05 10° E 01:58:46 15° NE 02:01:28 10° NNE visible
04 Jul 2.3 03:31:41 16° SSE 03:35:40 84° WSW 03:40:38 10° NNW visible
05 Jul 3.8 02:49:18 10° ESE 02:53:49 37° ENE 02:58:21 10° N visible
05 Jul 3.4 04:27:59 14° SSW 04:31:21 27° WSW 04:35:32 10° NW visible
